humankinetics.com alexa rank chart, humankinetics.com alexa rank daily changes

humankinetics.com alexa rank chart, humankinetics.com alexa rank daily changes

humankinetics.com
Actual rank:
32 632

RANK HISTORY

Date Rank Diff
2017/10/22 32 632 -5
2017/10/21 32 637 -167
2017/10/20 32 804 -502
2017/10/19 33 306 +194
2017/10/18 33 112 -233
2017/10/17 33 345 -99
2017/10/16 33 444 +90
2017/10/14 33 354 -326
2017/10/13 33 680 +90
2017/10/12 33 590 -9
2017/10/11 33 599 -480
2017/10/10 34 079 -140
2017/10/09 34 219 -17
2017/10/08 34 236 -179
2017/10/07 34 415 -223
2017/10/06 34 638 -779
2017/10/05 35 417 -357
2017/10/04 35 774 -732
2017/10/03 36 506 -403
2017/10/02 36 909 +79
2017/10/01 36 830 +276
2017/09/30 36 554 -279
2017/09/29 36 833 -488
2017/09/28 37 321 -759
2017/09/27 38 080 -414
2017/09/26 38 494 +80
2017/09/25 38 414 +143
2017/09/24 38 271 -280
2017/09/23 38 551 -1 134
2017/09/22 39 685 -570
2017/09/20 40 255 -503
2017/09/19 40 758 -1 853
2017/09/18 42 611 -223
2017/09/17 42 834 -336
2017/09/16 43 170 -82
2017/09/15 43 252 -83
2017/09/14 43 335 -771
2017/09/13 44 106 -288
2017/09/12 44 394 -516
2017/09/11 44 910 +14
2017/09/10 44 896 -933
2017/09/09 45 829 +283
2017/09/08 45 546 +63
2017/09/07 45 483 -622
2017/09/06 46 105 +364
2017/09/05 45 741 -182
2017/09/04 45 923 +40
2017/09/03 45 883 +364
2017/09/02 45 519 +85
2017/09/01 45 434 +498
2017/08/31 44 936 -453
2017/08/30 45 389 -596
2017/08/29 45 985 -25
2017/08/28 46 010 +233
2017/08/27 45 777 +205
2017/08/26 45 572 -601
2017/08/25 46 173 +67
2017/08/24 46 106 -245
2017/08/23 46 351

WIDGET FOR YOUR SITE

DOMAINS WITH THE NEAREST RANK

Domain Rank
windowsblogitalia.com 32 627
empleo.gob.mx 32 628
kaixindy.com 32 629
rasamalaysia.com 32 630
theflightdeal.com 32 631
humankinetics.com 32 632
new-rutor.info 32 633
titan007.com 32 634
tmbnet.in 32 635
johe.gdn 32 636
archdaily.com.br 32 637

DOMAINS WITH THE NEAREST RANK BY TLD .com

Domain Rank
dioxen.com 32 624
windowsblogitalia.com 32 627
kaixindy.com 32 629
rasamalaysia.com 32 630
theflightdeal.com 32 631
humankinetics.com 32 632
titan007.com 32 634
massmutual.com 32 639
eatthismuch.com 32 640
vulcan-million.com 32 641
sectorcine.com 32 644